Regional Weather Roundup
Issued by NWS Glasgow, MT

Home | Current Version | Previous Version | Text Only | Print | Product List | Glossary On
Versions: 1 2 3 4 5 6 7 8 9 10 11 12 13 14 15 16 17 18 19 20 21 22 23 24 25 26 27 28 29 30 31 32 33 34 35 36 37 38 39 40 41 42 43 44 45 46 47 48 49 50
000
ASUS45 KGGW 231615
RWRGGW
HOURLY WEATHER ROUNDUP FOR NORTHEAST MONTANA
NATIONAL WEATHER SERVICE GLASGOW MONTANA
1000 AM MDT WED JUL 23 2014

NOTE: "FAIR" INDICATES FEW OR NO CLOUDS BELOW 12,000 FEET WITH NO
SIGNIFICANT WEATHER AND/OR OBSTRUCTIONS TO VISISBILITY.

NORTHEAST MONTANA


CITY           SKY/WX    TMP DP  RH WIND       PRES   REMARKS
GLASGOW        SUNNY     78  61  55 SE17G23   30.16S
PLENTYWOOD       N/A     75  63  66 E3          N/A
WOLF POINT     SUNNY     79  60  52 E13       30.17F
JORDAN           N/A     77  61  57 E10       30.15S
WINNETT          N/A     75  61  61 SE3         N/A
SIDNEY         SUNNY     79  63  57 CALM      30.19F
GLENDIVE       SUNNY     73  61  64 E5        30.19F
MALTA            N/A     79  62  56 E9          N/A

FORT PECK REPORTS


CITY           SKY/WX    TMP DP  RH WIND       PRES   REMARKS
FORT PECK        N/A     75  60  59 E12         N/A
THE PINES        N/A     76  61  59 NE10        N/A

SOUTHEAST MONTANA


CITY           SKY/WX    TMP DP  RH WIND       PRES   REMARKS
BILLINGS       PTSUNNY   69  58  67 CALM      30.13F
MILES CITY     SUNNY     80  63  55 E9        30.13F
BAKER          SUNNY     76  63  64 SE9       30.22F
LIVINGSTON     SUNNY     71  53  52 NW7       30.20F

CENTRAL MONTANA


CITY           SKY/WX    TMP DP  RH WIND       PRES   REMARKS
HAVRE          LGT RAIN  67  57  70 E7        30.15S
LEWISTOWN      PTSUNNY   74  55  51 NW3       30.18F
GREAT FALLS    PTSUNNY   70  60  70 S6        30.13F
CUT BANK       CLOUDY    64  57  78 CALM      30.11F
HELENA         SUNNY     74  54  49 CALM      30.15F
BUTTE          SUNNY     64  49  57 CALM      30.27F
BOZEMAN        SUNNY     70  52  52 CALM      30.22F

WESTERN MONTANA


CITY           SKY/WX    TMP DP  RH WIND       PRES   REMARKS
MISSOULA       SUNNY     70  56  61 SE10      30.13F
KALISPELL      NOT AVBL

NORTH DAKOTA


CITY           SKY/WX    TMP DP  RH WIND       PRES   REMARKS
WILLISTON      SUNNY     79  61  53 S8        30.20F
DICKINSON      SUNNY     75  62  64 S17       30.23S
MINOT          CLOUDY    68  63  84 E14       30.27S
BISMARCK       PTSUNNY   74  60  61 SE15      30.27F

SOUTHERN SASKATCHEWAN


CITY           SKY/WX    TMP DP  RH WIND       PRES   REMARKS
REGINA         MOSUNNY   72  61  68 SE15G21   30.26S
MOOSE JAW      PTSUNNY   72  61  68 SE15      30.23F
ESTEVAN        PTSUNNY   70  61  73 E16       30.26F
SWIFT CURRENT  SUNNY     72  61  68 SE15      30.18R




USA.gov is the U.S. government's official web portal to all federal, state and local government web resources and services.